[[{"header":{"parameterUnit":"m.s-1","parameterCategory":1,"la1":30.2991,"la2":30.254,"lo1":-89.0895,"lo2":-89.0444,"dy":0.0017,"dx":0.0017,"nx":28,"ny":28,"refTime":"2023-07-23T09:00:00:Z","depth":0,"parameterNumber":2,"parameterNumberName":"U-component_of_WINDS"},"data":[0,0,0,0,0,0,0,0,0,0,0,0,0,0,0,0,0,0,0,0,0,0,0,0,0,0,0,0,0,0,0,0,0,0,0,0,0,0,0,0,0,0,0,0,0,0,0,0,0,0,0,0,0,0,0,0,0,0,-2.2153,-2.2153,0,-2.2203,-2.2203,-2.2204,-2.2185,-2.2184,-2.2183,-2.2182,-2.2225,-2.2228,-2.223,0,0,0,0,0,0,0,0,0,0,0,0,0,-2.2035,-2.2037,-2.2153,-2.2153,-2.2154,-2.2203,-2.2204,-2.2204,-2.2185,-2.2184,-2.2183,-2.2181,-2.2225,-2.2227,-2.223,0,0,0,0,0,0,0,0,0,0,0,0,0,-2.2085,-2.2038,-2.2153,-2.2151,-2.2151,-2.2203,-2.2204,-2.2204,-2.2186,-2.2184,-2.2182,-2.2181,-2.2224,-2.2227,-2.223,-2.2284,0,0,-2.224,-2.2242,0,0,0,0,0,0,0,0,-2.2082,-2.209,-2.215,-2.2151,-2.2151,-2.2186,-2.2178,-2.2231,-2.2186,-2.2172,-2.2182,-2.218,-2.2213,-2.2217,-2.223,-2.2286,-2.2288,-2.2241,-2.2243,-2.2244,-2.2245,0,0,0,0,0,0,0,-2.2079,-2.2087,-2.2172,-2.2151,-2.2152,-2.2145,-2.2151,-2.2188,-2.2201,-2.2173,-2.2172,-2.2179,-2.2213,-2.2227,-2.2231,-2.2289,-2.2241,-2.2244,-2.2246,-2.2247,-2.2393,-2.2394,0,0,0,0,0,0,-2.2076,-2.2084,-2.2171,-2.2174,-2.2112,-2.2149,-2.2155,-2.2177,-2.2201,-2.2203,-2.218,-2.2178,-2.2222,-2.2227,-2.2232,-2.2297,-2.2244,-2.2247,-2.2249,-2.2391,-2.2393,-2.2395,0,0,0,0,0,0,-2.2074,-2.2084,-2.2169,-2.2129,-2.2139,-2.2153,-2.2177,-2.2178,-2.2192,-2.2206,-2.2208,-2.2192,-2.2221,-2.2228,-2.2272,-2.2298,-2.2249,-2.2252,-2.2388,-2.2391,-2.2394,-2.2427,0,0,0,0,0,0,-2.207,-2.2083,-2.2105,-2.213,-2.2142,-2.221,-2.2179,-2.2181,-2.2199,-2.2196,-2.2218,-2.222,-2.222,-2.2267,-2.2276,-2.2302,-2.2254,-2.2386,-2.239,-2.2393,-2.2424,-2.2431,-2.2437,0,0,0,0,0,-2.2066,-2.2111,-2.2106,-2.2117,-2.217,-2.2211,-2.2218,-2.2219,-2.2201,-2.2222,-2.2232,-2.2219,-2.2295,-2.2272,-2.2281,-2.2309,-2.2384,-2.2389,-2.2393,-2.2421,-2.2429,-2.2437,0,0,0,0,0,0,-2.2085,-2.2114,-2.2109,-2.2163,-2.2186,-2.2208,-2.2234,-2.2228,-2.2254,-2.225,-2.2249,-2.2254,-2.23,-2.2309,-2.2283,-2.2363,-2.2337,-2.2343,-2.2355,-2.2363,-2.2369,-2.2365,-2.2257,0,0,0,0,0,-2.2096,-2.213,-2.2152,-2.2198,-2.2209,-2.2221,-2.2238,-2.2239,-2.226,-2.2268,-2.2281,-2.23,-2.2328,-2.2346,-2.2373,-2.2426,-2.243,-2.245,-2.2456,-2.2462,-2.2466,-2.2494,-2.2503,-2.2409,-2.2409,-2.2409,0,0,-2.2118,-2.2138,-2.2158,-2.2202,-2.2219,-2.2252,-2.2228,-2.2263,-2.2287,-2.2273,-2.2316,-2.2326,-2.2348,-2.2397,-2.2419,-2.2406,-2.2494,-2.2467,-2.2471,-2.2473,-2.2499,-2.2508,-2.2516,-2.2412,-2.2411,-2.2411,0,0,-2.2174,-2.2194,-2.2234,-2.2253,-2.228,-2.2288,-2.2298,-2.2322,-2.2329,-2.2374,-2.2364,-2.2391,-2.244,-2.2456,-2.247,-2.2537,-2.2525,-2.2545,-2.2578,-2.2606,-2.2613,-2.262,-2.2642,-2.265,-2.255,-2.255,-2.255,0,-2.2196,-2.2248,-2.2254,-2.2292,-2.2311,-2.2304,-2.2343,-2.236,-2.2394,-2.2406,-2.2392,-2.2455,-2.2469,-2.2521,-2.2538,-2.255,-2.256,-2.2541,-2.2612,-2.2619,-2.2625,-2.2646,-2.2654,-2.2552,-2.2552,-2.2552,-2.2552,0,-2.2274,-2.231,-2.2339,-2.2376,-2.2398,-2.2437,-2.2447,-2.2469,-2.2468,-2.2476,-2.2521,-2.2539,-2.2569,-2.2582,-2.258,-2.2635,-2.2626,-2.2612,-2.2585,-2.2636,-2.2655,-2.2664,-2.2555,-2.2555,-2.2554,-2.2554,0,0,-2.2339,-2.2383,-2.2393,-2.241,-2.2441,-2.2468,-2.2506,-2.2539,-2.2557,-2.2582,-2.2612,-2.2655,-2.2644,-2.266,-2.266,-2.2685,-2.2735,-2.2668,-2.2669,-2.2678,-2.2795,-2.2803,-2.2813,-2.273,-2.2731,-2.2732,-2.2793,0,-2.2397,-2.2467,-2.2475,-2.2536,-2.2569,-2.2564,-2.2597,-2.2619,-2.2629,-2.2656,-2.2666,-2.2697,-2.268,-2.269,-2.2714,-2.2724,-2.2758,-2.272,-2.2755,-2.2756,-2.2748,-2.2823,-2.2832,-2.2888,-2.2801,-2.2802,-2.2803,0,-2.2472,-2.2503,-2.2568,-2.2597,-2.2611,-2.2641,-2.2673,-2.27,-2.2725,-2.273,-2.2751,-2.2748,-2.2786,-2.276,-2.2811,-2.2785,-2.28,-2.2807,-2.2809,-2.281,-2.2781,-2.2824,-2.2906,-2.2914,-2.2815,-2.2814,-2.2813,0,-2.2512,-2.2569,-2.2616,-2.2631,-2.2666,-2.2687,-2.2702,-2.2726,-2.2746,-2.2773,-2.2785,-2.2815,-2.2831,-2.2853,-2.2859,-2.284,-2.2909,-2.2884,-2.2912,-2.2912,-2.2924,-2.2923,-2.3007,-2.2938,-2.2938,-2.2938,-2.2938,0,-2.2573,-2.2613,-2.2634,-2.2663,-2.2707,-2.2716,-2.2759,-2.2772,-2.2794,-2.2823,-2.2821,-2.2848,-2.2855,-2.2883,-2.2887,-2.2928,-2.2935,-2.2939,-2.2939,-2.2938,-2.2937,-2.2945,-2.2941,-2.294,-2.294,-2.2939,-2.2939,0,-2.2623,-2.2639,-2.269,-2.2721,-2.273,-2.2761,-2.2786,-2.2813,-2.2824,-2.2861,-2.287,-2.2887,-2.292,-2.2929,-2.2967,-2.297,-2.3017,-2.3015,-2.301,-2.3009,-2.3036,-2.3033,-2.3127,-2.3139,-2.3064,-2.3065,-2.3065,0,-2.266,-2.2691,-2.2728,-2.2749,-2.2766,-2.28,-2.2822,-2.2832,-2.2854,-2.2887,-2.2909,-2.2942,-2.2969,-2.3022,-2.3035,-2.3065,-2.3062,-2.3093,-2.3066,-2.3064,-2.306,-2.3057,-2.306,-2.3097,-2.3098,-2.3098,-2.3099,0,-2.2724,-2.2732,-2.2764,-2.2801,-2.2828,-2.2856,-2.2882,-2.2899,-2.2914,-2.2938,-2.2974,-2.2996,-2.3037,-2.307,-2.31,-2.3113,-2.3108,-2.3108,-2.3116,-2.3114,-2.3109,-2.311,-2.3021,-2.3105,-2.3104,-2.3104,-2.3104,-2.3103,-2.2767,-2.2795,-2.2826,-2.2863,-2.2885,-2.2911,-2.2938,-2.2955,-2.2986,-2.3023,-2.3027,-2.3065,-2.3089,-2.3131,-2.3146,-2.3174,-2.3164,-2.3176,-2.3179,-2.3181,-2.3183,-2.3107,-2.318,-2.318,-2.318,-2.318,-2.3179,0,-2.2829,-2.285,-2.2885,-2.2925,-2.2953,-2.2951,-2.2981,-2.3005,-2.304,-2.3065,-2.3093,-2.3134,-2.3167,-2.3185,-2.3216,-2.3236,-2.3234,-2.3243,-2.324,-2.3243,-2.319,-2.3179,-2.3244,-2.3244,-2.3244,-2.3244,-2.3244,-2.3244,-2.2865,-2.2912,-2.2924,-2.2982,-2.3001,-2.3042,-2.3059,-2.3083,-2.3103,-2.3151,-2.3179,-2.3192,-2.3214,-2.3248,-2.3277,-2.3281,-2.3292,-2.3302,-2.3305,-2.3254,-2.3247,-2.3241,-2.3231,-2.3305,-2.3305,-2.3356,-2.3356,-2.3356]},{"header":{"parameterUnit":"m.s-1","parameterCategory":1,"la1":30.2991,"la2":30.254,"lo1":-89.0895,"lo2":-89.0444,"dy":0.0017,"dx":0.0017,"nx":28,"ny":28,"refTime":"2023-07-23T09:00:00:Z","depth":0,"parameterNumber":3,"parameterNumberName":"V-component_of_WINDS"},"data":[0,0,0,0,0,0,0,0,0,0,0,0,0,0,0,0,0,0,0,0,0,0,0,0,0,0,0,0,0,0,0,0,0,0,0,0,0,0,0,0,0,0,0,0,0,0,0,0,0,0,0,0,0,0,0,0,0,0,0.8932,0.8933,0,0.9061,0.9062,0.9063,0.916,0.9161,0.9162,0.9163,0.9293,0.9296,0.9298,0,0,0,0,0,0,0,0,0,0,0,0,0,0.8765,0.8767,0.8932,0.8934,0.8935,0.906,0.9062,0.9064,0.916,0.9161,0.9162,0.9163,0.9292,0.9295,0.9298,0,0,0,0,0,0,0,0,0,0,0,0,0,0.886,0.8768,0.8932,0.8998,0.9006,0.906,0.9062,0.9064,0.916,0.9161,0.9163,0.9164,0.9291,0.9295,0.9299,0.9297,0,0,0.9311,0.9313,0,0,0,0,0,0,0,0,0.8854,0.8866,0.8987,0.8994,0.9002,0.9096,0.9051,0.9142,0.916,0.9101,0.9163,0.9165,0.9226,0.9236,0.9257,0.9303,0.9308,0.9311,0.9314,0.9315,0.9317,0,0,0,0,0,0,0,0.8847,0.8861,0.8983,0.8989,0.8998,0.902,0.9035,0.9069,0.9155,0.9107,0.9114,0.9128,0.9231,0.9253,0.9261,0.931,0.9311,0.9315,0.9317,0.9319,0.9356,0.9355,0,0,0,0,0,0,0.8831,0.8855,0.8979,0.8987,0.893,0.9022,0.9039,0.9064,0.9155,0.917,0.9127,0.9132,0.9245,0.9256,0.9265,0.9266,0.9315,0.9319,0.9321,0.9357,0.9356,0.9354,0,0,0,0,0,0,0.8827,0.8841,0.8974,0.8923,0.8941,0.9024,0.9051,0.9066,0.9089,0.917,0.9185,0.9134,0.9247,0.926,0.9287,0.9272,0.9321,0.9325,0.9359,0.9357,0.9355,0.9269,0,0,0,0,0,0,0.8822,0.8839,0.8841,0.8922,0.8944,0.8995,0.9051,0.9068,0.9095,0.9103,0.9181,0.9195,0.9249,0.9281,0.9291,0.9279,0.9328,0.9361,0.9358,0.9355,0.9274,0.9264,0.9256,0,0,0,0,0,0.8816,0.8812,0.8841,0.8855,0.8948,0.8994,0.9006,0.9069,0.9094,0.9095,0.9146,0.9192,0.9272,0.9283,0.9295,0.9284,0.9362,0.9359,0.9356,0.9277,0.9266,0.9256,0,0,0,0,0,0,0.8728,0.8825,0.8857,0.888,0.8928,0.901,0.9014,0.9055,0.9097,0.9103,0.9178,0.9195,0.9213,0.9251,0.9262,0.9284,0.9322,0.9322,0.9259,0.9248,0.924,0.923,0.9331,0,0,0,0,0,0.8711,0.8742,0.8824,0.8836,0.8859,0.8931,0.8954,0.8998,0.905,0.9071,0.9125,0.9173,0.9208,0.9231,0.9268,0.9279,0.9295,0.9276,0.9268,0.926,0.9259,0.9263,0.9255,0.9344,0.9344,0.9344,0,0,0.8678,0.8734,0.8749,0.882,0.8863,0.889,0.8948,0.8977,0.8997,0.9075,0.9104,0.9144,0.9203,0.922,0.9231,0.9253,0.9237,0.9256,0.925,0.9253,0.9259,0.925,0.9243,0.9342,0.9342,0.9342,0,0,0.8631,0.8677,0.8691,0.8731,0.8793,0.8841,0.8844,0.8919,0.8948,0.8978,0.9036,0.906,0.9121,0.9159,0.9186,0.9146,0.9189,0.9156,0.9112,0.9115,0.9108,0.9102,0.9085,0.9079,0.9155,0.9154,0.9154,0,0.8581,0.8627,0.8693,0.8716,0.8744,0.8814,0.8827,0.8863,0.8934,0.895,0.8973,0.9048,0.9092,0.9118,0.9108,0.9128,0.9132,0.9149,0.9104,0.9099,0.9094,0.9079,0.9073,0.915,0.915,0.9151,0.9151,0,0.8561,0.8591,0.8595,0.866,0.8688,0.8706,0.8772,0.8793,0.8832,0.8876,0.8902,0.8958,0.9006,0.9015,0.9055,0.9045,0.9056,0.909,0.913,0.908,0.9067,0.9062,0.9143,0.9145,0.9146,0.9148,0,0,0.8467,0.8565,0.8565,0.8594,0.8665,0.8689,0.8707,0.8754,0.8768,0.8813,0.8829,0.8876,0.8907,0.8937,0.8981,0.8984,0.8945,0.9018,0.902,0.9001,0.8933,0.8906,0.8899,0.8973,0.8972,0.8971,0.8928,0,0.8431,0.847,0.8527,0.8546,0.8573,0.8637,0.8652,0.8696,0.8736,0.8763,0.8807,0.8838,0.8878,0.8896,0.8901,0.8948,0.8932,0.8952,0.8987,0.8987,0.897,0.8893,0.8866,0.8822,0.8923,0.8923,0.8922,0,0.8395,0.8434,0.8456,0.852,0.8534,0.8547,0.8591,0.8617,0.8666,0.8694,0.8725,0.8772,0.8792,0.8827,0.8854,0.8866,0.8883,0.8907,0.8907,0.8913,0.8952,0.8895,0.881,0.8803,0.8915,0.8916,0.8916,0,0.8322,0.838,0.84,0.8422,0.8499,0.8506,0.8538,0.8588,0.861,0.8648,0.8663,0.8702,0.8724,0.8752,0.8806,0.8828,0.8826,0.8867,0.8848,0.8847,0.8846,0.8845,0.8761,0.8857,0.8857,0.8858,0.8858,0,0.8275,0.8285,0.8367,0.838,0.8391,0.8454,0.8463,0.8501,0.8544,0.8562,0.8619,0.8635,0.8706,0.8729,0.8771,0.8785,0.8795,0.8817,0.8828,0.8812,0.8808,0.8824,0.8828,0.8856,0.8856,0.8857,0.8857,0,0.8197,0.8253,0.8278,0.8346,0.8363,0.8368,0.8426,0.8438,0.8479,0.8501,0.851,0.8574,0.8604,0.866,0.8706,0.8734,0.8737,0.8758,0.8721,0.8728,0.8705,0.8705,0.8628,0.8619,0.8721,0.872,0.8719,0,0.8164,0.8173,0.8241,0.8257,0.8286,0.8311,0.8333,0.8394,0.8414,0.8467,0.8472,0.8505,0.8535,0.8578,0.8628,0.8662,0.8683,0.8653,0.8688,0.867,0.868,0.8678,0.8678,0.8645,0.8644,0.8642,0.8641,0,0.8099,0.8124,0.8154,0.8192,0.8216,0.8249,0.8284,0.8293,0.8361,0.838,0.841,0.8433,0.8477,0.8509,0.8549,0.858,0.862,0.8629,0.8626,0.861,0.8587,0.8596,0.8698,0.8631,0.8632,0.8633,0.8634,0.8634,0.8042,0.8051,0.8098,0.8128,0.816,0.819,0.8204,0.8245,0.8271,0.8312,0.8345,0.8371,0.8414,0.8472,0.8499,0.8518,0.8539,0.8535,0.8534,0.8532,0.8524,0.8583,0.8526,0.8527,0.8527,0.8527,0.8527,0,0.7978,0.801,0.8036,0.8083,0.8105,0.814,0.8179,0.8195,0.8217,0.8254,0.8281,0.8312,0.8341,0.8391,0.8424,0.8429,0.8448,0.8435,0.8435,0.8441,0.8505,0.8504,0.8419,0.8419,0.8419,0.8419,0.8419,0.8419,0.7947,0.7963,0.7993,0.8023,0.8055,0.8081,0.81,0.8126,0.8156,0.8188,0.8212,0.8243,0.8284,0.8319,0.8346,0.8359,0.8368,0.8348,0.8367,0.8427,0.8437,0.8447,0.8446,0.835,0.835,0.8301,0.8301,0.8301]}]]